contact:dominique.lefevre@mio.osupytheas.fr, maurice.libes@osupytheas.fr, didier.mallarino@osupytheas.fr
Project:EMSO http://www.emso-fr.org/EMSO-France
Depth: 2436.0 m
Title:EMSO Ligure Ouest : Data MII capteur MICROCAT
DateTime_Computer,Latitude,Longitude,Temperature,Conductivity,Pressure,DateTime_Instrument
DateTime_Computer,Latitude,Longitude,degC,S m-1,dbar,DateTime_Instrument
2022-04-25T00:00:42Z,42.805,6.029,13.3056,4.60117,2470.273,2022-4-25T02:02:22Z
2022-04-25T00:03:46Z,42.805,6.029,13.3041,4.60123,2470.25,2022-4-25T02:05:25Z
2022-04-25T00:06:49Z,42.805,6.029,13.3060,4.60121,2470.264,2022-4-25T02:08:28Z
2022-04-25T00:09:52Z,42.805,6.029,13.3063,4.60115,2470.287,2022-4-25T02:11:31Z
2022-04-25T00:12:55Z,42.805,6.029,13.3046,4.60113,2470.273,2022-4-25T02:14:34Z
2022-04-25T00:15:58Z,42.805,6.029,13.3051,4.60120,2470.278,2022-4-25T02:17:37Z
2022-04-25T00:19:01Z,42.805,6.029,13.3049,4.60140,2470.25,2022-4-25T02:20:40Z
2022-04-25T00:22:04Z,42.805,6.029,13.3045,4.60114,2470.264,2022-4-25T02:23:43Z
2022-04-25T00:25:07Z,42.805,6.029,13.3054,4.60124,2470.287,2022-4-25T02:26:47Z
2022-04-25T00:28:11Z,42.805,6.029,13.3063,4.60119,2470.287,2022-4-25T02:29:50Z
2022-04-25T00:31:14Z,42.805,6.029,13.3067,4.60111,2470.287,2022-4-25T02:32:53Z
2022-04-25T00:34:17Z,42.805,6.029,13.3079,4.60110,2470.31,2022-4-25T02:35:56Z
2022-04-25T00:37:20Z,42.805,6.029,13.3085,4.60129,2470.31,2022-4-25T02:38:59Z
2022-04-25T00:40:23Z,42.805,6.029,13.3087,4.60122,2470.287,2022-4-25T02:42:02Z
2022-04-25T00:43:26Z,42.805,6.029,13.3079,4.60127,2470.287,2022-4-25T02:45:05Z
2022-04-25T00:46:29Z,42.805,6.029,13.3088,4.60128,2470.273,2022-4-25T02:48:08Z
2022-04-25T00:49:32Z,42.805,6.029,13.3060,4.60128,2470.297,2022-4-25T02:51:12Z
2022-04-25T00:52:35Z,42.805,6.029,13.3065,4.60114,2470.297,2022-4-25T02:54:15Z
2022-04-25T00:55:39Z,42.805,6.029,13.3073,4.60097,2470.31,2022-4-25T02:57:18Z
2022-04-25T00:58:42Z,42.805,6.029,13.3085,4.60098,2470.32,2022-4-25T03:00:21Z
2022-04-25T01:01:45Z,42.805,6.029,13.3089,4.60105,2470.31,2022-4-25T03:03:24Z
2022-04-25T01:04:48Z,42.805,6.029,13.3082,4.60103,2470.297,2022-4-25T03:06:27Z
2022-04-25T01:07:51Z,42.805,6.029,13.3083,4.60124,2470.31,2022-4-25T03:09:30Z
2022-04-25T01:10:54Z,42.805,6.029,13.3088,4.60128,2470.334,2022-4-25T03:12:33Z
2022-04-25T01:13:57Z,42.805,6.029,13.3009,4.60132,2470.31,2022-4-25T03:15:37Z
2022-04-25T01:17:00Z,42.805,6.029,13.3004,4.60188,2470.287,2022-4-25T03:18:40Z
2022-04-25T01:20:04Z,42.805,6.029,13.3002,4.60174,2470.297,2022-4-25T03:21:43Z
2022-04-25T01:23:07Z,42.805,6.029,13.3003,4.60141,2470.31,2022-4-25T03:24:46Z
2022-04-25T01:26:10Z,42.805,6.029,13.3001,4.60144,2470.334,2022-4-25T03:27:49Z
2022-04-25T01:29:13Z,42.805,6.029,13.3007,4.60127,2470.32,2022-4-25T03:30:52Z
2022-04-25T01:32:16Z,42.805,6.029,13.3008,4.60141,2470.32,2022-4-25T03:33:55Z
2022-04-25T01:35:19Z,42.805,6.029,13.3005,4.60140,2470.357,2022-4-25T03:36:58Z
2022-04-25T01:38:22Z,42.805,6.029,13.3010,4.60121,2470.357,2022-4-25T03:40:02Z
2022-04-25T01:41:25Z,42.805,6.029,13.3020,4.60125,2470.32,2022-4-25T03:43:05Z
2022-04-25T01:44:28Z,42.805,6.029,13.3026,4.60124,2470.32,2022-4-25T03:46:08Z
2022-04-25T01:47:32Z,42.805,6.029,13.3021,4.60098,2470.343,2022-4-25T03:49:11Z
2022-04-25T01:50:35Z,42.805,6.029,13.3059,4.60116,2470.334,2022-4-25T03:52:14Z
2022-04-25T01:53:38Z,42.805,6.029,13.3036,4.60127,2470.343,2022-4-25T03:55:17Z
2022-04-25T01:56:41Z,42.805,6.029,13.3047,4.60102,2470.32,2022-4-25T03:58:20Z
2022-04-25T01:59:44Z,42.805,6.029,13.3065,4.60101,2470.343,2022-4-25T04:01:23Z
2022-04-25T02:02:47Z,42.805,6.029,13.3051,4.60096,2470.357,2022-4-25T04:04:26Z
2022-04-25T02:05:50Z,42.805,6.029,13.3087,4.60096,2470.343,2022-4-25T04:07:30Z
2022-04-25T02:08:53Z,42.805,6.029,13.3094,4.60109,2470.38,2022-4-25T04:10:33Z
2022-04-25T02:11:57Z,42.805,6.029,13.3063,4.60102,2470.357,2022-4-25T04:13:36Z
2022-04-25T02:15:00Z,42.805,6.029,13.3056,4.60106,2470.366,2022-4-25T04:16:39Z
2022-04-25T02:18:03Z,42.805,6.029,13.3032,4.60107,2470.404,2022-4-25T04:19:42Z
2022-04-25T02:21:06Z,42.805,6.029,13.3069,4.60097,2470.38,2022-4-25T04:22:45Z
2022-04-25T02:24:09Z,42.805,6.029,13.3043,4.60109,2470.39,2022-4-25T04:25:48Z
2022-04-25T02:27:12Z,42.805,6.029,13.3073,4.60094,2470.404,2022-4-25T04:28:51Z
2022-04-25T02:30:15Z,42.805,6.029,13.3083,4.60101,2470.404,2022-4-25T04:31:55Z
2022-04-25T02:33:18Z,42.805,6.029,13.3089,4.60090,2470.366,2022-4-25T04:34:58Z
2022-04-25T02:36:22Z,42.805,6.029,13.3075,4.60087,2470.38,2022-4-25T04:38:01Z
2022-04-25T02:39:25Z,42.805,6.029,13.3089,4.60079,2470.357,2022-4-25T04:41:04Z
2022-04-25T02:42:28Z,42.805,6.029,13.3089,4.60079,2470.357,2022-4-25T04:44:07Z
2022-04-25T02:45:31Z,42.805,6.029,13.3080,4.60095,2470.38,2022-4-25T04:47:10Z
2022-04-25T02:48:34Z,42.805,6.029,13.3066,4.60084,2470.38,2022-4-25T04:50:13Z
2022-04-25T02:51:37Z,42.805,6.029,13.3063,4.60077,2470.357,2022-4-25T04:53:16Z
2022-04-25T02:54:40Z,42.805,6.029,13.3070,4.60079,2470.38,2022-4-25T04:56:20Z
2022-04-25T02:57:43Z,42.805,6.029,13.3069,4.60079,2470.38,2022-4-25T04:59:23Z
2022-04-25T03:00:47Z,42.805,6.029,13.3061,4.60091,2470.38,2022-4-25T05:02:26Z
2022-04-25T03:03:50Z,42.805,6.029,13.3069,4.60095,2470.334,2022-4-25T05:05:29Z
2022-04-25T03:06:53Z,42.805,6.029,13.3085,4.60058,2470.357,2022-4-25T05:08:32Z
2022-04-25T03:09:56Z,42.805,6.029,13.3085,4.60054,2470.357,2022-4-25T05:11:35Z
2022-04-25T03:12:59Z,42.805,6.029,13.3082,4.60088,2470.343,2022-4-25T05:14:38Z
2022-04-25T03:16:02Z,42.805,6.029,13.3067,4.60074,2470.334,2022-4-25T05:17:41Z
2022-04-25T03:19:05Z,42.805,6.029,13.3062,4.60075,2470.334,2022-4-25T05:20:45Z
2022-04-25T03:22:08Z,42.805,6.029,13.3058,4.60079,2470.366,2022-4-25T05:23:48Z
2022-04-25T03:25:12Z,42.805,6.029,13.3063,4.60078,2470.343,2022-4-25T05:26:51Z
2022-04-25T03:28:15Z,42.805,6.029,13.3066,4.60097,2470.357,2022-4-25T05:29:54Z
2022-04-25T03:31:18Z,42.805,6.029,13.3067,4.60110,2470.357,2022-4-25T05:32:57Z
2022-04-25T03:34:21Z,42.805,6.029,13.3061,4.60102,2470.357,2022-4-25T05:36:00Z
2022-04-25T03:37:24Z,42.805,6.029,13.3063,4.60087,2470.366,2022-4-25T05:39:03Z
2022-04-25T03:40:27Z,42.805,6.029,13.3061,4.60097,2470.38,2022-4-25T05:42:06Z
2022-04-25T03:43:30Z,42.805,6.029,13.3069,4.60127,2470.357,2022-4-25T05:45:09Z
2022-04-25T03:46:33Z,42.805,6.029,13.3084,4.60087,2470.357,2022-4-25T05:48:13Z
2022-04-25T03:49:36Z,42.805,6.029,13.3082,4.60076,2470.357,2022-4-25T05:51:16Z
2022-04-25T03:52:40Z,42.805,6.029,13.3086,4.60061,2470.343,2022-4-25T05:54:19Z
2022-04-25T03:55:43Z,42.805,6.029,13.3098,4.60058,2470.38,2022-4-25T05:57:22Z
2022-04-25T03:58:46Z,42.805,6.029,13.3103,4.60051,2470.343,2022-4-25T06:00:25Z
2022-04-25T04:01:49Z,42.805,6.029,13.3112,4.60082,2470.357,2022-4-25T06:03:28Z
2022-04-25T04:04:52Z,42.805,6.029,13.3100,4.60062,2470.357,2022-4-25T06:06:31Z
2022-04-25T04:07:55Z,42.805,6.029,13.3098,4.60094,2470.32,2022-4-25T06:09:34Z
2022-04-25T04:10:58Z,42.805,6.029,13.3094,4.60081,2470.357,2022-4-25T06:12:38Z
2022-04-25T04:14:01Z,42.805,6.029,13.3096,4.60114,2470.39,2022-4-25T06:15:41Z
2022-04-25T04:17:05Z,42.805,6.029,13.3089,4.60096,2470.357,2022-4-25T06:18:44Z
2022-04-25T04:20:08Z,42.805,6.029,13.3096,4.60110,2470.343,2022-4-25T06:21:47Z
2022-04-25T04:23:11Z,42.805,6.029,13.3100,4.60115,2470.38,2022-4-25T06:24:50Z
2022-04-25T04:26:14Z,42.805,6.029,13.3101,4.60115,2470.366,2022-4-25T06:27:53Z
2022-04-25T04:29:17Z,42.805,6.029,13.3091,4.60095,2470.357,2022-4-25T06:30:56Z
2022-04-25T04:32:20Z,42.805,6.029,13.3097,4.60076,2470.38,2022-4-25T06:33:59Z
2022-04-25T04:35:23Z,42.805,6.029,13.3088,4.60094,2470.404,2022-4-25T06:37:03Z
2022-04-25T04:38:26Z,42.805,6.029,13.3074,4.60125,2470.343,2022-4-25T06:40:06Z
2022-04-25T04:41:30Z,42.805,6.029,13.3061,4.60099,2470.366,2022-4-25T06:43:09Z
2022-04-25T04:44:33Z,42.805,6.029,13.3057,4.60110,2470.366,2022-4-25T06:46:12Z
2022-04-25T04:47:36Z,42.805,6.029,13.3041,4.60128,2470.343,2022-4-25T06:49:15Z
2022-04-25T04:50:39Z,42.805,6.029,13.3041,4.60129,2470.38,2022-4-25T06:52:18Z
2022-04-25T04:53:42Z,42.805,6.029,13.3034,4.60104,2470.343,2022-4-25T06:55:21Z
2022-04-25T04:56:45Z,42.805,6.029,13.3036,4.60084,2470.357,2022-4-25T06:58:24Z
2022-04-25T04:59:48Z,42.805,6.029,13.3033,4.60122,2470.38,2022-4-25T07:01:27Z
2022-04-25T05:02:51Z,42.805,6.029,13.3039,4.60089,2470.38,2022-4-25T07:04:31Z
2022-04-25T05:05:54Z,42.805,6.029,13.3059,4.60119,2470.38,2022-4-25T07:07:34Z
2022-04-25T05:08:58Z,42.805,6.029,13.3071,4.60077,2470.343,2022-4-25T07:10:37Z
2022-04-25T05:12:01Z,42.805,6.029,13.3067,4.60112,2470.38,2022-4-25T07:13:40Z
2022-04-25T05:15:04Z,42.805,6.029,13.3066,4.60118,2470.404,2022-4-25T07:16:43Z
2022-04-25T05:18:07Z,42.805,6.029,13.3063,4.60137,2470.404,2022-4-25T07:19:46Z
2022-04-25T05:21:10Z,42.805,6.029,13.3078,4.60137,2470.366,2022-4-25T07:22:49Z
2022-04-25T05:24:13Z,42.805,6.029,13.3069,4.60144,2470.357,2022-4-25T07:25:52Z
2022-04-25T05:27:16Z,42.805,6.029,13.3070,4.60110,2470.366,2022-4-25T07:28:56Z
2022-04-25T05:30:19Z,42.805,6.029,13.3097,4.60092,2470.334,2022-4-25T07:31:59Z
2022-04-25T05:33:23Z,42.805,6.029,13.3094,4.60123,2470.38,2022-4-25T07:35:02Z
2022-04-25T05:36:26Z,42.805,6.029,13.3051,4.60117,2470.32,2022-4-25T07:38:05Z
2022-04-25T05:39:29Z,42.805,6.029,13.3048,4.60097,2470.38,2022-4-25T07:41:08Z
2022-04-25T05:42:32Z,42.805,6.029,13.3052,4.60129,2470.357,2022-4-25T07:44:11Z
2022-04-25T05:45:35Z,42.805,6.029,13.3036,4.60154,2470.343,2022-4-25T07:47:14Z
2022-04-25T05:48:38Z,42.805,6.029,13.3036,4.60069,2470.32,2022-4-25T07:50:17Z
2022-04-25T05:51:41Z,42.805,6.029,13.3033,4.60064,2470.343,2022-4-25T07:53:21Z
2022-04-25T05:54:44Z,42.805,6.029,13.3029,4.60080,2470.366,2022-4-25T07:56:24Z
2022-04-25T05:57:48Z,42.805,6.029,13.3015,4.60113,2470.366,2022-4-25T07:59:27Z
2022-04-25T06:00:51Z,42.805,6.029,13.3029,4.60117,2470.404,2022-4-25T08:02:30Z
2022-04-25T06:03:54Z,42.805,6.029,13.3021,4.60141,2470.366,2022-4-25T08:05:33Z
2022-04-25T06:06:57Z,42.805,6.029,13.3036,4.60112,2470.357,2022-4-25T08:08:36Z
2022-04-25T06:10:00Z,42.805,6.029,13.3054,4.60157,2470.31,2022-4-25T08:11:39Z
2022-04-25T06:13:03Z,42.805,6.029,13.3070,4.60079,2470.343,2022-4-25T08:14:42Z
2022-04-25T06:16:06Z,42.805,6.029,13.3069,4.60110,2470.343,2022-4-25T08:17:46Z
2022-04-25T06:19:09Z,42.805,6.029,13.3083,4.60087,2470.334,2022-4-25T08:20:49Z
2022-04-25T06:22:13Z,42.805,6.029,13.3048,4.60103,2470.334,2022-4-25T08:23:52Z
2022-04-25T06:25:16Z,42.805,6.029,13.3057,4.60089,2470.38,2022-4-25T08:26:55Z
2022-04-25T06:28:19Z,42.805,6.029,13.3076,4.60102,2470.357,2022-4-25T08:29:58Z
2022-04-25T06:31:22Z,42.805,6.029,13.3086,4.60084,2470.334,2022-4-25T08:33:01Z
2022-04-25T06:34:25Z,42.805,6.029,13.3080,4.60079,2470.32,2022-4-25T08:36:04Z
2022-04-25T06:37:28Z,42.805,6.029,13.3056,4.60095,2470.38,2022-4-25T08:39:07Z
2022-04-25T06:40:31Z,42.805,6.029,13.3048,4.60064,2470.357,2022-4-25T08:42:11Z
2022-04-25T06:43:34Z,42.805,6.029,13.3065,4.60061,2470.357,2022-4-25T08:45:14Z
2022-04-25T06:46:38Z,42.805,6.029,13.3058,4.60073,2470.357,2022-4-25T08:48:17Z
2022-04-25T06:49:41Z,42.805,6.029,13.3070,4.60088,2470.343,2022-4-25T08:51:20Z
2022-04-25T06:52:44Z,42.805,6.029,13.3061,4.60106,2470.32,2022-4-25T08:54:23Z
2022-04-25T06:55:47Z,42.805,6.029,13.3054,4.60081,2470.334,2022-4-25T08:57:26Z
2022-04-25T06:58:50Z,42.805,6.029,13.3050,4.60087,2470.343,2022-4-25T09:00:29Z
2022-04-25T07:01:53Z,42.805,6.029,13.3042,4.60075,2470.357,2022-4-25T09:03:32Z
2022-04-25T07:04:56Z,42.805,6.029,13.3046,4.60091,2470.357,2022-4-25T09:06:36Z
2022-04-25T07:07:59Z,42.805,6.029,13.3059,4.60075,2470.31,2022-4-25T09:09:39Z
2022-04-25T07:11:03Z,42.805,6.029,13.3085,4.60089,2470.297,2022-4-25T09:12:42Z
2022-04-25T07:14:06Z,42.805,6.029,13.3045,4.60125,2470.357,2022-4-25T09:15:45Z
2022-04-25T07:17:09Z,42.805,6.029,13.3046,4.60081,2470.32,2022-4-25T09:18:48Z
2022-04-25T07:20:12Z,42.805,6.029,13.3062,4.60094,2470.287,2022-4-25T09:21:51Z
2022-04-25T07:23:15Z,42.805,6.029,13.3087,4.60065,2470.334,2022-4-25T09:24:54Z
2022-04-25T07:26:18Z,42.805,6.029,13.3059,4.60074,2470.31,2022-4-25T09:27:57Z
2022-04-25T07:29:21Z,42.805,6.029,13.3070,4.60087,2470.31,2022-4-25T09:31:00Z
2022-04-25T07:32:24Z,42.805,6.029,13.3073,4.60077,2470.32,2022-4-25T09:34:04Z
2022-04-25T07:35:27Z,42.805,6.029,13.3041,4.60073,2470.287,2022-4-25T09:37:07Z
2022-04-25T07:38:31Z,42.805,6.029,13.3064,4.60089,2470.32,2022-4-25T09:40:10Z
2022-04-25T07:41:34Z,42.805,6.029,13.3035,4.60078,2470.273,2022-4-25T09:43:13Z
2022-04-25T07:44:37Z,42.805,6.029,13.3033,4.60070,2470.273,2022-4-25T09:46:16Z
2022-04-25T07:47:40Z,42.805,6.029,13.3069,4.60102,2470.297,2022-4-25T09:49:19Z
2022-04-25T07:50:43Z,42.805,6.029,13.3043,4.60074,2470.273,2022-4-25T09:52:22Z
2022-04-25T07:53:46Z,42.805,6.029,13.3031,4.60097,2470.287,2022-4-25T09:55:25Z
2022-04-25T07:56:49Z,42.805,6.029,13.3039,4.60097,2470.264,2022-4-25T09:58:29Z
2022-04-25T07:59:52Z,42.805,6.029,13.3036,4.60092,2470.273,2022-4-25T10:01:32Z
2022-04-25T08:02:56Z,42.805,6.029,13.3039,4.60085,2470.264,2022-4-25T10:04:35Z
2022-04-25T08:05:59Z,42.805,6.029,13.3039,4.60075,2470.25,2022-4-25T10:07:38Z
2022-04-25T08:09:02Z,42.805,6.029,13.3063,4.60072,2470.264,2022-4-25T10:10:41Z
2022-04-25T08:12:05Z,42.805,6.029,13.3039,4.60090,2470.227,2022-4-25T10:13:44Z
2022-04-25T08:15:08Z,42.805,6.029,13.3024,4.60101,2470.24,2022-4-25T10:16:47Z
2022-04-25T08:18:11Z,42.805,6.029,13.3043,4.60099,2470.264,2022-4-25T10:19:50Z
2022-04-25T08:21:14Z,42.805,6.029,13.3071,4.60077,2470.227,2022-4-25T10:22:54Z
2022-04-25T08:24:17Z,42.805,6.029,13.3038,4.60107,2470.25,2022-4-25T10:25:57Z
2022-04-25T08:27:21Z,42.805,6.029,13.3032,4.60076,2470.227,2022-4-25T10:29:00Z
2022-04-25T08:30:24Z,42.805,6.029,13.3031,4.60088,2470.264,2022-4-25T10:32:03Z
2022-04-25T08:33:27Z,42.805,6.029,13.3034,4.60067,2470.227,2022-4-25T10:35:06Z
2022-04-25T08:36:30Z,42.805,6.029,13.3019,4.60087,2470.24,2022-4-25T10:38:09Z
2022-04-25T08:39:33Z,42.805,6.029,13.3029,4.60088,2470.287,2022-4-25T10:41:12Z
2022-04-25T08:42:36Z,42.805,6.029,13.3034,4.60114,2470.217,2022-4-25T10:44:15Z
2022-04-25T08:45:39Z,42.805,6.029,13.3047,4.60103,2470.264,2022-4-25T10:47:19Z
2022-04-25T08:48:42Z,42.805,6.029,13.3046,4.60090,2470.25,2022-4-25T10:50:22Z
2022-04-25T08:51:46Z,42.805,6.029,13.3045,4.60079,2470.227,2022-4-25T10:53:25Z
2022-04-25T08:54:49Z,42.805,6.029,13.3033,4.60080,2470.264,2022-4-25T10:56:28Z
2022-04-25T08:57:52Z,42.805,6.029,13.3035,4.60074,2470.227,2022-4-25T10:59:31Z
2022-04-25T09:00:55Z,42.805,6.029,13.3053,4.60092,2470.227,2022-4-25T11:02:34Z
2022-04-25T09:03:58Z,42.805,6.029,13.3043,4.60082,2470.227,2022-4-25T11:05:37Z
2022-04-25T09:07:01Z,42.805,6.029,13.3029,4.60081,2470.287,2022-4-25T11:08:40Z
2022-04-25T09:10:04Z,42.805,6.029,13.3045,4.60062,2470.227,2022-4-25T11:11:44Z
2022-04-25T09:13:07Z,42.805,6.029,13.3048,4.60073,2470.227,2022-4-25T11:14:47Z
2022-04-25T09:16:11Z,42.805,6.029,13.3055,4.60069,2470.227,2022-4-25T11:17:50Z
2022-04-25T09:19:14Z,42.805,6.029,13.3045,4.60072,2470.264,2022-4-25T11:20:53Z
2022-04-25T09:22:17Z,42.805,6.029,13.3068,4.60084,2470.227,2022-4-25T11:23:56Z
2022-04-25T09:25:20Z,42.805,6.029,13.3036,4.60092,2470.227,2022-4-25T11:26:59Z
2022-04-25T09:28:23Z,42.805,6.029,13.3043,4.60104,2470.217,2022-4-25T11:30:02Z
2022-04-25T09:31:26Z,42.805,6.029,13.3041,4.60079,2470.203,2022-4-25T11:33:05Z
2022-04-25T09:34:29Z,42.805,6.029,13.3064,4.60097,2470.227,2022-4-25T11:36:09Z
2022-04-25T09:37:32Z,42.805,6.029,13.3056,4.60069,2470.24,2022-4-25T11:39:12Z
2022-04-25T09:40:36Z,42.805,6.029,13.3058,4.60075,2470.203,2022-4-25T11:42:15Z
2022-04-25T09:43:39Z,42.805,6.029,13.3060,4.60085,2470.227,2022-4-25T11:45:18Z
2022-04-25T09:46:42Z,42.805,6.029,13.3075,4.60087,2470.203,2022-4-25T11:48:21Z
2022-04-25T09:49:45Z,42.805,6.029,13.3060,4.60068,2470.227,2022-4-25T11:51:24Z
2022-04-25T09:52:48Z,42.805,6.029,13.3074,4.60091,2470.217,2022-4-25T11:54:27Z
2022-04-25T09:55:51Z,42.805,6.029,13.3085,4.60087,2470.24,2022-4-25T11:57:30Z
2022-04-25T09:58:54Z,42.805,6.029,13.3076,4.60084,2470.227,2022-4-25T12:00:34Z
2022-04-25T10:01:57Z,42.805,6.029,13.3069,4.60079,2470.264,2022-4-25T12:03:37Z
2022-04-25T10:05:01Z,42.805,6.029,13.3061,4.60072,2470.227,2022-4-25T12:06:40Z
2022-04-25T10:08:04Z,42.805,6.029,13.3070,4.60067,2470.264,2022-4-25T12:09:43Z
2022-04-25T10:11:07Z,42.805,6.029,13.3086,4.60074,2470.24,2022-4-25T12:12:46Z
2022-04-25T10:14:10Z,42.805,6.029,13.3080,4.60074,2470.227,2022-4-25T12:15:49Z
2022-04-25T10:17:13Z,42.805,6.029,13.3084,4.60082,2470.227,2022-4-25T12:18:52Z
2022-04-25T10:20:16Z,42.805,6.029,13.3089,4.60087,2470.217,2022-4-25T12:21:55Z
2022-04-25T10:23:19Z,42.805,6.029,13.3098,4.60077,2470.264,2022-4-25T12:24:59Z
2022-04-25T10:26:22Z,42.805,6.029,13.3073,4.60069,2470.18,2022-4-25T12:28:02Z
2022-04-25T10:29:26Z,42.805,6.029,13.3084,4.60068,2470.24,2022-4-25T12:31:05Z
2022-04-25T10:32:29Z,42.805,6.029,13.3073,4.60070,2470.25,2022-4-25T12:34:08Z
2022-04-25T10:35:32Z,42.805,6.029,13.3065,4.60074,2470.217,2022-4-25T12:37:11Z
2022-04-25T10:38:35Z,42.805,6.029,13.3070,4.60092,2470.217,2022-4-25T12:40:14Z
2022-04-25T10:41:38Z,42.805,6.029,13.3040,4.60144,2470.24,2022-4-25T12:43:17Z
2022-04-25T10:44:41Z,42.805,6.029,13.3002,4.60156,2470.287,2022-4-25T12:46:20Z
2022-04-25T10:47:44Z,42.805,6.029,13.3023,4.60088,2470.25,2022-4-25T12:49:24Z
2022-04-25T10:50:47Z,42.805,6.029,13.3064,4.60111,2470.227,2022-4-25T12:52:27Z
2022-04-25T10:53:51Z,42.805,6.029,13.3060,4.60088,2470.227,2022-4-25T12:55:30Z
2022-04-25T10:56:54Z,42.805,6.029,13.3085,4.60096,2470.264,2022-4-25T12:58:33Z
2022-04-25T10:59:57Z,42.805,6.029,13.3051,4.60086,2470.227,2022-4-25T13:01:36Z
2022-04-25T11:03:00Z,42.805,6.029,13.3161,4.60104,2470.264,2022-4-25T13:04:39Z
2022-04-25T11:06:03Z,42.805,6.029,13.3082,4.60089,2470.203,2022-4-25T13:07:42Z
2022-04-25T11:09:06Z,42.805,6.029,13.3025,4.60080,2470.24,2022-4-25T13:10:45Z
2022-04-25T11:12:09Z,42.805,6.029,13.3026,4.60105,2470.217,2022-4-25T13:13:49Z
2022-04-25T11:15:12Z,42.805,6.029,13.3056,4.60082,2470.203,2022-4-25T13:16:52Z
2022-04-25T11:18:16Z,42.805,6.029,13.3067,4.60073,2470.24,2022-4-25T13:19:55Z
2022-04-25T11:21:19Z,42.805,6.029,13.3058,4.60098,2470.203,2022-4-25T13:22:58Z
2022-04-25T11:24:22Z,42.805,6.029,13.3023,4.60081,2470.203,2022-4-25T13:26:01Z
2022-04-25T11:27:25Z,42.805,6.029,13.3067,4.60109,2470.217,2022-4-25T13:29:04Z
2022-04-25T11:30:28Z,42.805,6.029,13.3082,4.60077,2470.203,2022-4-25T13:32:07Z
2022-04-25T11:33:31Z,42.805,6.029,13.3069,4.60102,2470.18,2022-4-25T13:35:10Z
2022-04-25T11:36:34Z,42.805,6.029,13.3063,4.60069,2470.217,2022-4-25T13:38:14Z
2022-04-25T11:39:37Z,42.805,6.029,13.3049,4.60081,2470.18,2022-4-25T13:41:17Z
2022-04-25T11:42:41Z,42.805,6.029,13.3056,4.60107,2470.24,2022-4-25T13:44:20Z
2022-04-25T11:45:44Z,42.805,6.029,13.3034,4.60102,2470.18,2022-4-25T13:47:23Z
2022-04-25T11:48:47Z,42.805,6.029,13.3024,4.60128,2470.24,2022-4-25T13:50:26Z
2022-04-25T11:51:50Z,42.805,6.029,13.3067,4.60087,2470.18,2022-4-25T13:53:29Z
2022-04-25T11:54:53Z,42.805,6.029,13.3045,4.60087,2470.217,2022-4-25T13:56:32Z
2022-04-25T11:57:56Z,42.805,6.029,13.3048,4.60075,2470.203,2022-4-25T13:59:36Z
2022-04-25T12:00:59Z,42.805,6.029,13.3048,4.60063,2470.194,2022-4-25T14:02:39Z
2022-04-25T12:04:03Z,42.805,6.029,13.3054,4.60067,2470.217,2022-4-25T14:05:42Z
2022-04-25T12:07:06Z,42.805,6.029,13.3041,4.60062,2470.194,2022-4-25T14:08:45Z
2022-04-25T12:10:09Z,42.805,6.029,13.3083,4.60073,2470.217,2022-4-25T14:11:48Z
2022-04-25T12:13:12Z,42.805,6.029,13.3054,4.60078,2470.18,2022-4-25T14:14:51Z
2022-04-25T12:16:15Z,42.805,6.029,13.3040,4.60073,2470.217,2022-4-25T14:17:54Z
2022-04-25T12:19:18Z,42.805,6.029,13.3036,4.60085,2470.194,2022-4-25T14:20:57Z
2022-04-25T12:22:21Z,42.805,6.029,13.3041,4.60074,2470.217,2022-4-25T14:24:01Z
2022-04-25T12:25:24Z,42.805,6.029,13.3055,4.60084,2470.217,2022-4-25T14:27:04Z
2022-04-25T12:28:28Z,42.805,6.029,13.3053,4.60068,2470.217,2022-4-25T14:30:07Z
2022-04-25T12:31:31Z,42.805,6.029,13.3031,4.60087,2470.203,2022-4-25T14:33:10Z
2022-04-25T12:34:34Z,42.805,6.029,13.3029,4.60066,2470.203,2022-4-25T14:36:13Z
2022-04-25T12:37:37Z,42.805,6.029,13.3052,4.60091,2470.217,2022-4-25T14:39:16Z
2022-04-25T12:40:40Z,42.805,6.029,13.3052,4.60089,2470.24,2022-4-25T14:42:19Z
2022-04-25T12:43:43Z,42.805,6.029,13.3048,4.60087,2470.24,2022-4-25T14:45:22Z
2022-04-25T12:46:46Z,42.805,6.029,13.3061,4.60097,2470.203,2022-4-25T14:48:26Z
2022-04-25T12:49:49Z,42.805,6.029,13.3047,4.60076,2470.18,2022-4-25T14:51:29Z
2022-04-25T12:52:53Z,42.805,6.029,13.3036,4.60069,2470.217,2022-4-25T14:54:32Z
2022-04-25T12:55:56Z,42.805,6.029,13.3033,4.60079,2470.24,2022-4-25T14:57:35Z
2022-04-25T12:58:59Z,42.805,6.029,13.3051,4.60072,2470.194,2022-4-25T15:00:38Z
2022-04-25T13:02:02Z,42.805,6.029,13.3031,4.60086,2470.217,2022-4-25T15:03:41Z
2022-04-25T13:05:05Z,42.805,6.029,13.3063,4.60068,2470.194,2022-4-25T15:06:44Z
2022-04-25T13:08:08Z,42.805,6.029,13.3044,4.60067,2470.203,2022-4-25T15:09:47Z
2022-04-25T13:11:11Z,42.805,6.029,13.3034,4.60069,2470.227,2022-4-25T15:12:51Z
2022-04-25T13:14:14Z,42.805,6.029,13.3048,4.60081,2470.24,2022-4-25T15:15:54Z
2022-04-25T13:17:18Z,42.805,6.029,13.3036,4.60072,2470.227,2022-4-25T15:18:57Z
2022-04-25T13:20:21Z,42.805,6.029,13.3013,4.60067,2470.24,2022-4-25T15:22:00Z
2022-04-25T13:23:24Z,42.805,6.029,13.3042,4.60069,2470.24,2022-4-25T15:25:03Z
2022-04-25T13:26:27Z,42.805,6.029,13.3025,4.60061,2470.227,2022-4-25T15:28:06Z
2022-04-25T13:29:30Z,42.805,6.029,13.3058,4.60092,2470.24,2022-4-25T15:31:09Z
2022-04-25T13:32:33Z,42.805,6.029,13.3021,4.60067,2470.227,2022-4-25T15:34:12Z
2022-04-25T13:35:36Z,42.805,6.029,13.3021,4.60075,2470.203,2022-4-25T15:37:16Z
2022-04-25T13:38:39Z,42.805,6.029,13.3046,4.60078,2470.24,2022-4-25T15:40:19Z
2022-04-25T13:41:43Z,42.805,6.029,13.3038,4.60102,2470.18,2022-4-25T15:43:22Z
2022-04-25T13:44:46Z,42.805,6.029,13.3064,4.60083,2470.217,2022-4-25T15:46:25Z
2022-04-25T13:47:49Z,42.805,6.029,13.3043,4.60061,2470.227,2022-4-25T15:49:28Z
2022-04-25T13:50:52Z,42.805,6.029,13.3025,4.60080,2470.227,2022-4-25T15:52:31Z
2022-04-25T13:53:55Z,42.805,6.029,13.3048,4.60072,2470.24,2022-4-25T15:55:34Z
2022-04-25T13:56:58Z,42.805,6.029,13.3045,4.60078,2470.24,2022-4-25T15:58:37Z
2022-04-25T14:00:01Z,42.805,6.029,13.3052,4.60074,2470.227,2022-4-25T16:01:41Z
2022-04-25T14:03:04Z,42.805,6.029,13.3042,4.60061,2470.203,2022-4-25T16:04:44Z
2022-04-25T14:06:08Z,42.805,6.029,13.3044,4.60087,2470.203,2022-4-25T16:07:47Z
2022-04-25T14:09:11Z,42.805,6.029,13.3031,4.60072,2470.227,2022-4-25T16:10:50Z
2022-04-25T14:12:14Z,42.805,6.029,13.3036,4.60070,2470.227,2022-4-25T16:13:53Z
2022-04-25T14:15:17Z,42.805,6.029,13.3039,4.60076,2470.24,2022-4-25T16:16:56Z
2022-04-25T14:18:20Z,42.805,6.029,13.3002,4.60072,2470.24,2022-4-25T16:19:59Z
2022-04-25T14:21:23Z,42.805,6.029,13.3036,4.60069,2470.203,2022-4-25T16:23:02Z
2022-04-25T14:24:26Z,42.805,6.029,13.3051,4.60075,2470.25,2022-4-25T16:26:06Z
2022-04-25T14:27:29Z,42.805,6.029,13.3073,4.60088,2470.217,2022-4-25T16:29:09Z
2022-04-25T14:30:33Z,42.805,6.029,13.3007,4.60091,2470.25,2022-4-25T16:32:12Z
2022-04-25T14:33:36Z,42.805,6.029,13.3004,4.60076,2470.227,2022-4-25T16:35:15Z
2022-04-25T14:36:39Z,42.805,6.029,13.3020,4.60069,2470.227,2022-4-25T16:38:18Z
2022-04-25T14:39:42Z,42.805,6.029,13.2999,4.60053,2470.25,2022-4-25T16:41:21Z
2022-04-25T14:42:45Z,42.805,6.029,13.3009,4.60068,2470.227,2022-4-25T16:44:24Z
2022-04-25T14:45:48Z,42.805,6.029,13.3031,4.60064,2470.217,2022-4-25T16:47:27Z
2022-04-25T14:48:51Z,42.805,6.029,13.3000,4.60055,2470.227,2022-4-25T16:50:31Z
2022-04-25T14:51:54Z,42.805,6.029,13.3000,4.60061,2470.24,2022-4-25T16:53:34Z
2022-04-25T14:54:58Z,42.805,6.029,13.3000,4.60052,2470.217,2022-4-25T16:56:37Z
2022-04-25T14:58:01Z,42.805,6.029,13.3000,4.60054,2470.217,2022-4-25T16:59:40Z
2022-04-25T15:01:04Z,42.805,6.029,13.3000,4.60055,2470.264,2022-4-25T17:02:43Z
2022-04-25T15:04:07Z,42.805,6.029,13.3001,4.60054,2470.189,2022-4-25T17:05:46Z
2022-04-25T15:07:10Z,42.805,6.029,13.3000,4.60054,2470.264,2022-4-25T17:08:49Z
2022-04-25T15:10:13Z,42.805,6.029,13.3002,4.60062,2470.203,2022-4-25T17:11:52Z
2022-04-25T15:13:16Z,42.805,6.029,13.3000,4.60066,2470.25,2022-4-25T17:14:56Z